GW0217 Weather Reports


time (UTC)temp
F
wind
direction
speed
knots
gust
knots
rain 1hr
in
rain 24hr
in
rain mn
in
humidity
%
barometer
mb
20260906231027 78 194 7.8 12.2 0.00 0.00 0.00 27 1015.7
20260906230053 78 208 7.0 13.0 0.00 0.00 0.00 27 1015.9
20260906225029 79 231 7.8 14.8 0.00 0.00 0.00 26 1016.2
20260906224029 80 222 7.8 11.3 0.00 0.00 0.00 26 1016.3
20260906222031 81 186 7.0 11.3 0.00 0.00 0.00 26 1018.0
20260906221026 83 213 6.1 10.4 0.00 0.00 0.00 26 1018.4
20260906220028 83 238 7.0 9.6 0.00 0.00 0.00 26 1018.4
20260906215028 84 219 7.0 12.2 0.00 0.00 0.00 25 1018.9
20260906214024 85 222 6.1 8.7 0.00 0.00 0.00 24 1019.3
20260906213024 86 203 7.0 7.0 0.00 0.00 0.00 22 1019.2
20260906212025 84 203 7.0 11.3 0.00 0.00 0.00 25 1019.5
20260906211027 81 229 6.1 12.2 0.00 0.00 0.00 27 1018.8
20260906210054 80 212 6.1 9.6 0.00 0.00 0.00 27 1018.7
20260906205029 80 207 7.0 11.3 0.00 0.00 0.00 27 1018.7
20260906204020 81 194 7.0 10.4 0.00 0.00 0.00 27 1019.6
20260906203022 82 228 6.1 7.0 0.00 0.00 0.00 27 1019.6
20260906202023 82 208 7.0 8.7 0.00 0.00 0.00 27 1019.7
20260906201024 83 194 5.2 9.6 0.00 0.00 0.00 27 1020.1
20260906200029 82 229 4.3 8.7 0.00 0.00 0.00 27 1020.5
20260906195055 82 182 4.3 5.2 0.00 0.00 0.00 29 1020.8
20260906194021 81 221 3.5 6.1 0.00 0.00 0.00 29 1020.5
20260906193042 80 204 2.6 6.1 0.00 0.00 0.00 30 1020.5
20260906192028 80 133 2.6 4.3 0.00 0.00 0.00 30 1020.8
20260906191030 79 230 2.6 9.6 0.00 0.00 0.00 30 1020.5
20260906190021 79 221 2.6 2.6 0.00 0.00 0.00 29 1021.0
20260906185022 80 194 3.5 7.0 0.00 0.00 0.00 30 1021.6
20260906184023 80 205 3.5 4.3 0.00 0.00 0.00 29 1022.1
20260906183052 79 259 3.5 12.2 0.00 0.00 0.00 30 1021.7
20260906182029 79 268 3.5 7.0 0.00 0.00 0.00 30 1022.7
20260906181211 78 231 3.5 3.5 0.00 0.00 0.00 31 1022.4
20260906180023 78 216 3.5 7.8 0.00 0.00 0.00 31 1022.8
20260906175024 77 183 2.6 4.3 0.00 0.00 0.00 32 1023.4
20260906174026 76 113 3.5 9.6 0.00 0.00 0.00 33 1023.4
20260906173027 75 23 2.6 6.1 0.00 0.00 0.00 32 1022.9
20260906171104 73 55 2.6 5.2 0.00 0.00 0.00 33 1023.2
20260906170120 72 55 2.6 5.2 0.00 0.00 0.00 34 1023.4
20260906165031 71 139 2.6 6.1 0.00 0.00 0.00 35 1023.4
20260906164021 70 61 2.6 5.2 0.00 0.00 0.00 37 1023.2
20260906163048 68 51 2.6 5.2 0.00 0.00 0.00 38 1022.9
20260906162101 66 102 1.7 4.3 0.00 0.00 0.00 41 1023.1
20260906161053 65 41 1.7 4.3 0.00 0.00 0.00 42 1022.6
20260906155023 62 14 1.7 1.7 0.00 0.00 0.00 46 1022.3
20260906154024 61 15 1.7 4.3 0.00 0.00 0.00 48 1022.4
20260906153027 59 53 2.6 3.5 0.00 0.00 0.00 49 1021.9
20260906152027 58 0 1.7 4.3 0.00 0.00 0.00 51 1021.7
20260906151029 57 11 1.7 1.7 0.00 0.00 0.00 53 1021.5
20260906145027 54 86 1.7 1.7 0.00 0.00 0.00 56 1020.5
20260906144027 53 31 1.7 3.5 0.00 0.00 0.00 58 1019.5
20260906143028 52 351 0.9 0.9 0.00 0.00 0.00 60 1019.5
20260906142030 52 336 0.9 1.7 0.00 0.00 0.00 63 1019.6
20260906141021 51 127 0.0 0.9 0.00 0.00 0.00 65 1019.3
20260906135023 51 143 0.0 0.0 0.00 0.00 0.00 64 1019.5
20260906134232 50 160 0.0 0.9 0.00 0.00 0.00 63 1019.0
20260906133020 50 148 0.9 0.9 0.00 0.00 0.00 63 1019.0
20260906132047 50 178 0.9 1.7 0.00 0.00 0.00 63 1019.3
20260906131025 50 158 0.0 1.7 0.00 0.00 0.00 63 1019.3
20260906130035 50 0.0 0.0 0.00 0.00 0.00 63 1019.2
20260906125117 50 0.0 0.0 0.00 0.00 0.00 63 1019.6
20260906123055 51 229 0.9 0.9 0.00 0.00 0.00 61 1019.3
20260906122054 51 158 0.0 1.7 0.00 0.00 0.00 61 1020.1
20260906121029 51 252 0.9 0.9 0.00 0.00 0.00 60 1020.1
20260906120049 51 306 0.9 1.7 0.00 0.00 0.00 59 1020.0
20260906115024 51 335 0.9 1.7 0.00 0.00 0.00 59 1020.4
20260906114025 51 246 0.9 1.7 0.00 0.00 0.00 60 1020.4
20260906113038 52 304 0.9 2.6 0.00 0.00 0.00 62 1020.8
20260906111029 52 208 0.9 2.6 0.00 0.00 0.00 61 1021.6
20260906110120 52 198 1.7 1.7 0.00 0.00 0.00 61 1021.3
20260906105032 53 184 1.7 2.6 0.00 0.00 0.00 60 1021.7
20260906104028 53 334 0.9 1.7 0.00 0.00 0.00 60 1021.8
20260906103028 53 233 0.0 0.0 0.00 0.00 0.00 60 1021.8
20260906102030 54 189 0.0 0.9 0.00 0.00 0.00 59 1021.9
20260906101030 54 145 0.0 0.9 0.00 0.00 0.00 58 1021.9
20260906100021 54 307 0.0 1.7 0.00 0.00 0.00 58 1021.6
20260906095023 54 21 0.0 0.0 0.00 0.00 0.00 58 1021.3
20260906094025 54 279 0.9 0.9 0.00 0.00 0.00 58 1021.1
20260906093027 55 333 0.9 2.6 0.00 0.00 0.00 57 1021.5
20260906092132 55 159 0.9 3.5 0.00 0.00 0.00 56 1021.4
20260906091027 56 67 0.0 1.7 0.00 0.00 0.00 55 1021.7
20260906090029 56 214 0.0 0.9 0.00 0.00 0.00 55 1021.5
20260906085031 56 312 0.9 0.9 0.00 0.00 0.00 54 1020.8
20260906084021 57 293 0.0 0.0 0.00 0.00 0.00 53 1020.4
20260906083023 57 194 0.9 1.7 0.00 0.00 0.00 53 1020.5
20260906082024 57 135 0.0 0.9 0.00 0.00 0.00 53 1020.7
20260906081025 58 259 0.0 0.9 0.00 0.00 0.00 52 1020.7
20260906075027 59 0.0 0.0 0.00 0.00 0.00 49 1020.7
20260906074028 59 0.0 0.0 0.00 0.00 0.00 49 1020.7
20260906073030 60 178 0.0 0.9 0.00 0.00 0.00 48 1020.7
20260906072020 60 270 0.0 1.7 0.00 0.00 0.00 47 1019.8
20260906071214 61 288 0.0 0.0 0.00 0.00 0.00 47 1020.1
20260906070023 61 337 0.0 1.7 0.00 0.00 0.00 47 1020.2
20260906065024 62 321 0.9 0.9 0.00 0.00 0.00 45 1019.8
20260906064027 62 223 0.0 0.0 0.00 0.00 0.00 44 1019.6
20260906063028 63 345 0.0 0.9 0.00 0.00 0.00 43 1020.0
20260906062029 64 194 0.9 1.7 0.00 0.00 0.00 41 1019.9
20260906061030 64 158 0.9 1.7 0.00 0.00 0.00 41 1019.9
20260906060043 65 201 0.9 1.7 0.00 0.00 0.00 40 1019.9
20260906055027 66 135 0.0 0.9 0.00 0.00 0.00 39 1019.4
20260906054054 66 299 0.0 0.9 0.00 0.00 0.00 38 1019.6
20260906052021 68 342 0.9 1.7 0.00 0.00 0.00 35 1019.5
20260906051022 69 60 0.9 1.7 0.00 0.00 0.00 34 1019.6
20260906050023 69 174 1.7 2.6 0.00 0.00 0.00 34 1019.5
20260906045026 70 152 2.6 4.3 0.00 0.00 0.00 34 1019.0
20260906044208 71 114 3.5 4.3 0.00 0.00 0.00 33 1019.1
20260906043028 71 227 4.3 5.2 0.00 0.00 0.00 32 1019.1
20260906042029 72 204 5.2 7.0 0.00 0.00 0.00 31 1018.5
20260906041046 72 234 5.2 7.0 0.00 0.00 0.00 30 1018.3
20260906040022 72 217 5.2 7.8 0.00 0.00 0.00 30 1018.5
20260906035026 72 203 5.2 8.7 0.00 0.00 0.00 30 1017.9
20260906034026 72 216 5.2 8.7 0.00 0.00 0.00 30 1017.5
20260906033102 72 219 5.2 6.1 0.00 0.00 0.00 30 1017.5
20260906032053 73 193 5.2 7.0 0.00 0.00 0.00 30 1017.1
20260906031030 73 217 6.1 7.0 0.00 0.00 0.00 29 1017.0
20260906030033 73 211 5.2 10.4 0.00 0.00 0.00 29 1016.9
20260906025025 73 230 4.3 7.0 0.00 0.00 0.00 29 1016.9
20260906024028 74 189 4.3 5.2 0.00 0.00 0.00 29 1016.7
20260906023030 74 211 5.2 5.2 0.00 0.00 0.00 28 1016.7
20260906022046 74 254 5.2 7.8 0.00 0.00 0.00 28 1016.5
20260906021022 75 211 6.1 6.1 0.00 0.00 0.00 28 1016.9
20260906020049 75 208 7.0 12.2 0.00 0.00 0.00 27 1016.9
20260906015024 76 217 7.0 9.6 0.00 0.00 0.00 27 1016.9
20260906014026 76 193 6.1 10.4 0.00 0.00 0.00 27 1017.0
20260906012029 77 216 6.1 7.0 0.00 0.00 0.00 27 1017.6
20260906011045 77 203 6.1 10.4 0.00 0.00 0.00 27 1017.6
20260906005114 79 211 7.0 13.0 0.00 0.00 0.00 25 1018.6
20260906004050 79 197 7.0 9.6 0.00 0.00 0.00 24 1018.1
20260906003026 80 206 7.0 8.7 0.00 0.00 0.00 24 1018.4
20260906002028 80 203 6.1 8.7 0.00 0.00 0.00 25 1019.2
20260906001027 81 217 7.0 8.7 0.00 0.00 0.00 25 1019.3
20260906000028 82 197 7.0 12.2 0.00 0.00 0.00 24 1019.7
20260905235030 83 171 7.0 10.4 0.00 0.00 0.00 24 1019.7
20260905234023 84 205 6.1 8.7 0.00 0.00 0.00 23 1020.2
20260905233023 85 178 7.0 10.4 0.00 0.00 0.00 22 1020.3
20260905232025 86 176 5.2 11.3 0.00 0.00 0.00 22 1020.7